Time,TemperatureF,DewpointF,PressureIn,WindDirection,WindDirectionDegrees,WindSpeedMPH,WindSpeedGustMPH,Humidity,HourlyPrecipIn,Conditions,Clouds,dailyrainin,SoftwareType,DateUTC
2013-01-14 00:01:00,4.5,-4.7,28.91,WNW,283,1.0,2.7,65,0.00,,,-99.99,FreeWX-Wi 1.01,2013-01-14 06:01:00,
2013-01-14 00:06:00,4.5,-4.7,28.91,West,278,1.0,2.7,65,0.00,,,-99.99,FreeWX-Wi 1.01,2013-01-14 06:06:00,
2013-01-14 00:11:00,4.5,-4.7,28.91,West,274,1.0,2.2,65,0.00,,,-99.99,FreeWX-Wi 1.01,2013-01-14 06:11:00,
2013-01-14 00:17:00,4.5,-4.7,28.91,West,270,1.0,2.2,65,0.00,,,-99.99,FreeWX-Wi 1.01,2013-01-14 06:17:00,
2013-01-14 00:22:00,4.1,-5.1,28.91,West,266,1.0,3.6,65,0.00,,,-99.99,FreeWX-Wi 1.01,2013-01-14 06:22:00,
2013-01-14 00:27:00,4.1,-5.1,28.91,West,264,1.0,3.1,65,0.00,,,-99.99,FreeWX-Wi 1.01,2013-01-14 06:27:00,
2013-01-14 00:32:00,4.3,-4.9,28.94,West,264,2.0,2.7,65,0.00,,,-99.99,FreeWX-Wi 1.01,2013-01-14 06:32:00,
2013-01-14 00:37:00,4.3,-4.9,28.94,West,263,2.0,2.7,65,0.00,,,-99.99,FreeWX-Wi 1.01,2013-01-14 06:37:00,
2013-01-14 00:42:00,4.1,-5.1,28.94,West,262,2.0,4.0,65,0.00,,,-99.99,FreeWX-Wi 1.01,2013-01-14 06:42:00,
2013-01-14 00:47:00,4.1,-5.1,28.94,West,259,2.0,4.0,65,0.00,,,-99.99,FreeWX-Wi 1.01,2013-01-14 06:47:00,
2013-01-14 00:52:00,3.9,-5.3,28.94,WSW,256,2.0,3.6,65,0.00,,,-99.99,FreeWX-Wi 1.01,2013-01-14 06:52:00,
2013-01-14 00:57:00,3.9,-5.3,28.94,WSW,254,2.0,3.6,65,0.00,,,-99.99,FreeWX-Wi 1.01,2013-01-14 06:57:00,
2013-01-14 01:02:00,3.9,-5.3,28.94,WSW,251,2.0,3.6,65,0.00,,,-99.99,FreeWX-Wi 1.01,2013-01-14 07:02:00,
2013-01-14 01:08:00,3.9,-5.3,28.94,WSW,249,2.0,2.7,65,0.00,,,-99.99,FreeWX-Wi 1.01,2013-01-14 07:08:00,
2013-01-14 01:13:00,3.9,-5.3,28.94,WSW,248,2.0,3.6,65,0.00,,,-99.99,FreeWX-Wi 1.01,2013-01-14 07:13:00,
2013-01-14 01:18:00,3.7,-5.4,28.94,WSW,248,2.0,3.1,65,0.00,,,-99.99,FreeWX-Wi 1.01,2013-01-14 07:18:00,
2013-01-14 01:23:00,3.7,-5.4,28.94,WSW,248,2.0,4.0,65,0.00,,,-99.99,FreeWX-Wi 1.01,2013-01-14 07:23:00,
2013-01-14 01:28:00,3.9,-5.3,28.94,WSW,248,2.0,4.0,65,0.00,,,-99.99,FreeWX-Wi 1.01,2013-01-14 07:28:00,
2013-01-14 01:33:00,3.7,-5.4,28.94,WSW,248,2.0,4.9,65,0.00,,,-99.99,FreeWX-Wi 1.01,2013-01-14 07:33:00,
2013-01-14 01:38:00,3.7,-5.4,28.94,WSW,247,3.0,5.4,65,0.00,,,-99.99,FreeWX-Wi 1.01,2013-01-14 07:38:00,
2013-01-14 01:43:00,3.7,-5.4,28.94,WSW,245,3.0,4.9,65,0.00,,,-99.99,FreeWX-Wi 1.01,2013-01-14 07:43:00,
2013-01-14 01:48:00,3.7,-5.4,28.94,WSW,243,3.0,4.0,65,0.00,,,-99.99,FreeWX-Wi 1.01,2013-01-14 07:48:00,
2013-01-14 01:54:00,3.7,-5.4,28.94,WSW,242,3.0,0.0,65,0.00,,,-99.99,FreeWX-Wi 1.01,2013-01-14 07:54:00,
2013-01-14 01:59:00,3.9,-5.3,28.94,WSW,240,2.0,0.0,65,0.00,,,-99.99,FreeWX-Wi 1.01,2013-01-14 07:59:00,
2013-01-14 02:04:00,3.7,-5.4,28.91,WSW,239,2.0,0.0,65,0.00,,,-99.99,FreeWX-Wi 1.01,2013-01-14 08:04:00,
2013-01-14 02:09:00,3.6,-5.4,28.91,WSW,238,1.0,3.1,65,0.00,,,-99.99,FreeWX-Wi 1.01,2013-01-14 08:09:00,
2013-01-14 02:14:00,3.2,-5.8,28.91,North,-999,0.0,2.7,65,0.00,,,-99.99,FreeWX-Wi 1.01,2013-01-14 08:14:00,
2013-01-14 02:19:00,3.2,-5.8,28.94,North,-999,0.0,2.7,65,0.00,,,-99.99,FreeWX-Wi 1.01,2013-01-14 08:19:00,
2013-01-14 02:24:00,3.2,-5.8,28.94,WSW,238,1.0,5.4,65,0.00,,,-99.99,FreeWX-Wi 1.01,2013-01-14 08:24:00,
2013-01-14 02:29:00,3.4,-5.6,28.94,WSW,237,1.0,5.4,65,0.00,,,-99.99,FreeWX-Wi 1.01,2013-01-14 08:29:00,
2013-01-14 02:34:00,3.4,-5.6,28.94,WSW,238,2.0,5.4,65,0.00,,,-99.99,FreeWX-Wi 1.01,2013-01-14 08:34:00,
2013-01-14 02:39:00,3.7,-5.4,28.94,WSW,238,2.0,5.4,65,0.00,,,-99.99,FreeWX-Wi 1.01,2013-01-14 08:39:00,
2013-01-14 02:44:00,3.7,-5.4,28.94,WSW,239,3.0,6.3,65,0.00,,,-99.99,FreeWX-Wi 1.01,2013-01-14 08:44:00,
2013-01-14 02:50:00,3.7,-5.4,28.94,WSW,239,3.0,3.6,65,0.00,,,-99.99,FreeWX-Wi 1.01,2013-01-14 08:50:00,
2013-01-14 02:55:00,3.7,-5.4,28.94,WSW,239,3.0,3.1,65,0.00,,,-99.99,FreeWX-Wi 1.01,2013-01-14 08:55:00,
2013-01-14 03:00:00,3.7,-5.4,28.94,WSW,240,3.0,4.5,65,0.00,,,-99.99,FreeWX-Wi 1.01,2013-01-14 09:00:00,
2013-01-14 03:05:00,3.7,-5.4,28.94,WSW,239,3.0,4.0,65,0.00,,,-99.99,FreeWX-Wi 1.01,2013-01-14 09:05:00,
2013-01-14 03:10:00,3.6,-5.4,28.94,WSW,238,3.0,5.4,65,0.00,,,-99.99,FreeWX-Wi 1.01,2013-01-14 09:10:00,
2013-01-14 03:15:00,3.6,-5.4,28.94,WSW,239,3.0,5.8,65,0.00,,,-99.99,FreeWX-Wi 1.01,2013-01-14 09:15:00,
2013-01-14 03:20:00,3.6,-5.4,28.94,WSW,238,4.0,5.4,65,0.00,,,-99.99,FreeWX-Wi 1.01,2013-01-14 09:20:00,
2013-01-14 03:25:00,3.6,-5.4,28.94,WSW,237,4.0,5.4,65,0.00,,,-99.99,FreeWX-Wi 1.01,2013-01-14 09:25:00,
2013-01-14 03:30:00,3.4,-5.6,28.94,SW,236,4.0,5.4,65,0.00,,,-99.99,FreeWX-Wi 1.01,2013-01-14 09:30:00,
2013-01-14 03:36:00,3.6,-5.4,28.94,WSW,237,4.0,5.8,65,0.00,,,-99.99,FreeWX-Wi 1.01,2013-01-14 09:36:00,
2013-01-14 03:41:00,3.7,-5.4,28.94,WSW,237,4.0,6.3,65,0.00,,,-99.99,FreeWX-Wi 1.01,2013-01-14 09:41:00,
2013-01-14 03:46:00,3.7,-5.4,28.97,SW,234,4.0,5.8,65,0.00,,,-99.99,FreeWX-Wi 1.01,2013-01-14 09:46:00,
2013-01-14 03:51:00,3.7,-5.4,28.97,SW,233,4.0,5.4,65,0.00,,,-99.99,FreeWX-Wi 1.01,2013-01-14 09:51:00,
2013-01-14 03:56:00,3.7,-5.4,28.97,SW,232,4.0,5.8,65,0.00,,,-99.99,FreeWX-Wi 1.01,2013-01-14 09:56:00,
2013-01-14 04:01:00,3.7,-5.4,28.97,SW,233,5.0,7.6,65,0.00,,,-99.99,FreeWX-Wi 1.01,2013-01-14 10:01:00,
2013-01-14 04:06:00,4.1,-5.1,28.97,SW,235,5.0,6.3,65,0.00,,,-99.99,FreeWX-Wi 1.01,2013-01-14 10:06:00,
2013-01-14 04:11:00,4.3,-4.9,28.97,SW,236,5.0,8.3,65,0.00,,,-99.99,FreeWX-Wi 1.01,2013-01-14 10:11:00,
2013-01-14 04:16:00,4.5,-4.7,28.97,WSW,238,5.0,8.3,65,0.00,,,-99.99,FreeWX-Wi 1.01,2013-01-14 10:16:00,
2013-01-14 04:21:00,4.5,-4.7,28.97,WSW,242,6.0,6.3,65,0.00,,,-99.99,FreeWX-Wi 1.01,2013-01-14 10:21:00,
2013-01-14 04:26:00,4.5,-4.7,28.97,WSW,245,5.0,6.3,65,0.00,,,-99.99,FreeWX-Wi 1.01,2013-01-14 10:26:00,
2013-01-14 04:32:00,4.6,-4.5,28.97,WSW,246,5.0,7.2,65,0.00,,,-99.99,FreeWX-Wi 1.01,2013-01-14 10:32:00,
2013-01-14 04:37:00,4.5,-4.7,28.97,WSW,246,5.0,5.8,65,0.00,,,-99.99,FreeWX-Wi 1.01,2013-01-14 10:37:00,
2013-01-14 04:42:00,4.5,-4.7,28.97,WSW,247,5.0,5.4,65,0.00,,,-99.99,FreeWX-Wi 1.01,2013-01-14 10:42:00,
2013-01-14 04:47:00,4.1,-5.1,28.97,WSW,248,4.0,4.0,65,0.00,,,-99.99,FreeWX-Wi 1.01,2013-01-14 10:47:00,
2013-01-14 04:52:00,3.9,-5.3,28.97,WSW,248,4.0,4.0,65,0.00,,,-99.99,FreeWX-Wi 1.01,2013-01-14 10:52:00,
2013-01-14 04:57:00,3.7,-5.4,28.97,WSW,248,3.0,4.9,65,0.00,,,-99.99,FreeWX-Wi 1.01,2013-01-14 10:57:00,
2013-01-14 05:02:00,3.7,-5.4,28.97,WSW,248,3.0,3.6,65,0.00,,,-99.99,FreeWX-Wi 1.01,2013-01-14 11:02:00,
2013-01-14 05:07:00,3.7,-5.4,28.97,WSW,248,2.0,2.7,65,0.00,,,-99.99,FreeWX-Wi 1.01,2013-01-14 11:07:00,
2013-01-14 05:12:00,3.7,-5.4,28.97,WSW,247,2.0,3.6,65,0.00,,,-99.99,FreeWX-Wi 1.01,2013-01-14 11:12:00,
2013-01-14 05:17:00,3.7,-5.4,28.97,WSW,246,2.0,4.9,65,0.00,,,-99.99,FreeWX-Wi 1.01,2013-01-14 11:17:00,
2013-01-14 05:23:00,3.7,-5.4,28.97,WSW,245,2.0,4.9,65,0.00,,,-99.99,FreeWX-Wi 1.01,2013-01-14 11:23:00,
2013-01-14 05:28:00,3.7,-5.4,28.97,WSW,244,2.0,3.1,65,0.00,,,-99.99,FreeWX-Wi 1.01,2013-01-14 11:28:00,
2013-01-14 05:33:00,3.7,-5.4,28.97,WSW,243,2.0,4.0,65,0.00,,,-99.99,FreeWX-Wi 1.01,2013-01-14 11:33:00,
2013-01-14 05:38:00,3.7,-5.4,28.97,WSW,241,2.0,4.0,65,0.00,,,-99.99,FreeWX-Wi 1.01,2013-01-14 11:38:00,
2013-01-14 05:43:00,3.7,-5.4,28.97,WSW,239,2.0,3.6,65,0.00,,,-99.99,FreeWX-Wi 1.01,2013-01-14 11:43:00,
2013-01-14 05:48:00,3.4,-5.6,28.97,WSW,239,2.0,4.0,65,0.00,,,-99.99,FreeWX-Wi 1.01,2013-01-14 11:48:00,
2013-01-14 05:53:00,3.2,-5.8,28.97,WSW,239,2.0,3.6,65,0.00,,,-99.99,FreeWX-Wi 1.01,2013-01-14 11:53:00,
2013-01-14 05:58:00,3.2,-5.8,28.97,WSW,240,2.0,3.6,65,0.00,,,-99.99,FreeWX-Wi 1.01,2013-01-14 11:58:00,
2013-01-14 06:03:00,3.2,-5.8,28.97,WSW,240,2.0,5.4,65,0.00,,,-99.99,FreeWX-Wi 1.01,2013-01-14 12:03:00,
2013-01-14 06:08:00,3.4,-5.6,28.97,WSW,241,3.0,5.8,65,0.00,,,-99.99,FreeWX-Wi 1.01,2013-01-14 12:08:00,
2013-01-14 06:14:00,3.7,-5.4,29.00,WSW,241,3.0,5.8,65,0.00,,,-99.99,FreeWX-Wi 1.01,2013-01-14 12:14:00,
2013-01-14 06:19:00,3.6,-5.4,29.00,WSW,238,3.0,3.1,65,0.00,,,-99.99,FreeWX-Wi 1.01,2013-01-14 12:19:00,
2013-01-14 06:24:00,3.4,-5.6,29.00,SW,233,3.0,4.0,65,0.00,,,-99.99,FreeWX-Wi 1.01,2013-01-14 12:24:00,
2013-01-14 06:29:00,3.4,-5.6,29.00,SW,226,3.0,4.9,65,0.00,,,-99.99,FreeWX-Wi 1.01,2013-01-14 12:29:00,
2013-01-14 06:34:00,3.4,-5.6,29.00,SW,222,3.0,4.0,65,0.00,,,-99.99,FreeWX-Wi 1.01,2013-01-14 12:34:00,
2013-01-14 06:39:00,3.2,-5.8,29.00,SW,219,3.0,4.0,65,0.00,,,-99.99,FreeWX-Wi 1.01,2013-01-14 12:39:00,
2013-01-14 06:44:00,3.2,-5.8,29.00,SW,219,3.0,3.6,65,0.00,,,-99.99,FreeWX-Wi 1.01,2013-01-14 12:44:00,
2013-01-14 06:49:00,3.2,-5.8,29.00,SW,223,3.0,6.3,65,0.00,,,-99.99,FreeWX-Wi 1.01,2013-01-14 12:49:00,
2013-01-14 06:54:00,3.6,-5.4,29.00,SW,226,3.0,5.8,65,0.00,,,-99.99,FreeWX-Wi 1.01,2013-01-14 12:54:00,
2013-01-14 06:59:00,3.7,-5.4,29.03,SW,228,4.0,5.8,65,0.00,,,-99.99,FreeWX-Wi 1.01,2013-01-14 12:59:00,
2013-01-14 07:05:00,4.1,-5.1,29.03,SW,229,4.0,5.8,65,0.00,,,-99.99,FreeWX-Wi 1.01,2013-01-14 13:05:00,
2013-01-14 07:10:00,4.6,-4.5,29.03,SW,230,4.0,6.3,65,0.00,,,-99.99,FreeWX-Wi 1.01,2013-01-14 13:10:00,
2013-01-14 07:15:00,5.2,-4.0,29.03,SW,228,4.0,6.3,65,0.00,,,-99.99,FreeWX-Wi 1.01,2013-01-14 13:15:00,
2013-01-14 07:20:00,5.5,-3.6,29.03,SW,224,5.0,6.3,65,0.00,,,-99.99,FreeWX-Wi 1.01,2013-01-14 13:20:00,
2013-01-14 07:25:00,5.9,-3.3,29.03,SW,223,5.0,6.7,65,0.00,,,-99.99,FreeWX-Wi 1.01,2013-01-14 13:25:00,
2013-01-14 07:30:00,6.1,-3.1,29.03,SW,222,5.0,6.7,65,0.00,,,-99.99,FreeWX-Wi 1.01,2013-01-14 13:30:00,
2013-01-14 07:35:00,6.4,-2.7,29.03,SW,221,5.0,7.6,65,0.00,,,-99.99,FreeWX-Wi 1.01,2013-01-14 13:35:00,
2013-01-14 07:40:00,6.8,-2.4,29.03,SW,219,5.0,8.3,65,0.00,,,-99.99,FreeWX-Wi 1.01,2013-01-14 13:40:00,
2013-01-14 07:45:00,7.0,-2.2,29.03,SW,219,6.0,8.1,65,0.00,,,-99.99,FreeWX-Wi 1.01,2013-01-14 13:45:00,
2013-01-14 07:50:00,7.3,-1.8,29.03,SW,221,6.0,6.7,65,0.00,,,-99.99,FreeWX-Wi 1.01,2013-01-14 13:50:00,
2013-01-14 07:56:00,7.7,-1.7,29.03,SW,223,6.0,7.2,65,0.00,,,-99.99,FreeWX-Wi 1.01,2013-01-14 13:56:00,
2013-01-14 08:01:00,7.9,-1.5,29.03,SW,224,6.0,7.6,65,0.00,,,-99.99,FreeWX-Wi 1.01,2013-01-14 14:01:00,
2013-01-14 08:06:00,8.1,-1.3,29.03,SW,225,6.0,8.3,65,0.00,,,-99.99,FreeWX-Wi 1.01,2013-01-14 14:06:00,
2013-01-14 08:11:00,8.4,-0.9,29.03,SW,226,6.0,8.1,65,0.00,,,-99.99,FreeWX-Wi 1.01,2013-01-14 14:11:00,
2013-01-14 08:16:00,8.6,-0.8,29.03,SW,225,6.0,8.7,65,0.00,,,-99.99,FreeWX-Wi 1.01,2013-01-14 14:16:00,
2013-01-14 08:21:00,8.8,-0.6,29.03,SW,223,6.0,10.1,65,0.00,,,-99.99,FreeWX-Wi 1.01,2013-01-14 14:21:00,
2013-01-14 08:26:00,8.8,-0.6,29.03,SW,222,6.0,8.1,65,0.00,,,-99.99,FreeWX-Wi 1.01,2013-01-14 14:26:00,
2013-01-14 08:31:00,9.1,-0.2,29.06,SW,221,6.0,8.7,65,0.00,,,-99.99,FreeWX-Wi 1.01,2013-01-14 14:31:00,
2013-01-14 08:36:00,9.3,0.0,29.06,SW,218,6.0,8.1,65,0.00,,,-99.99,FreeWX-Wi 1.01,2013-01-14 14:36:00,
2013-01-14 08:41:00,9.5,0.1,29.06,SW,219,6.0,7.6,65,0.00,,,-99.99,FreeWX-Wi 1.01,2013-01-14 14:41:00,
2013-01-14 08:46:00,9.7,0.3,29.03,SW,219,6.0,7.6,65,0.00,,,-99.99,FreeWX-Wi 1.01,2013-01-14 14:46:00,
2013-01-14 08:52:00,10.0,0.7,29.03,SW,221,6.0,7.2,65,0.00,,,-99.99,FreeWX-Wi 1.01,2013-01-14 14:52:00,
2013-01-14 08:57:00,10.2,0.9,29.03,SW,221,5.0,6.3,65,0.00,,,-99.99,FreeWX-Wi 1.01,2013-01-14 14:57:00,
2013-01-14 09:02:00,10.6,1.2,29.06,SW,223,5.0,5.8,65,0.00,,,-99.99,FreeWX-Wi 1.01,2013-01-14 15:02:00,
2013-01-14 09:07:00,10.8,1.4,29.06,SW,227,5.0,8.1,65,0.00,,,-99.99,FreeWX-Wi 1.01,2013-01-14 15:07:00,
2013-01-14 09:12:00,10.9,1.6,29.06,SW,233,5.0,7.6,65,0.00,,,-99.99,FreeWX-Wi 1.01,2013-01-14 15:12:00,
2013-01-14 09:17:00,11.3,1.9,29.06,SW,235,5.0,8.7,65,0.00,,,-99.99,FreeWX-Wi 1.01,2013-01-14 15:17:00,
2013-01-14 09:22:00,11.5,2.1,29.06,SW,236,6.0,8.7,65,0.00,,,-99.99,FreeWX-Wi 1.01,2013-01-14 15:22:00,
2013-01-14 09:27:00,11.7,2.1,29.06,WSW,240,6.0,10.1,65,0.00,,,-99.99,FreeWX-Wi 1.01,2013-01-14 15:27:00,
2013-01-14 09:32:00,11.7,2.1,29.06,WSW,241,6.0,9.2,65,0.00,,,-99.99,FreeWX-Wi 1.01,2013-01-14 15:32:00,
2013-01-14 09:37:00,11.8,2.3,29.06,WSW,240,7.0,8.1,65,0.00,,,-99.99,FreeWX-Wi 1.01,2013-01-14 15:37:00,
2013-01-14 09:42:00,11.8,2.3,29.06,WSW,240,7.0,8.7,65,0.00,,,-99.99,FreeWX-Wi 1.01,2013-01-14 15:42:00,
2013-01-14 09:48:00,11.8,2.3,29.06,WSW,242,6.0,6.3,65,0.00,,,-99.99,FreeWX-Wi 1.01,2013-01-14 15:48:00,
2013-01-14 09:53:00,12.0,2.5,29.06,WSW,244,6.0,7.6,65,0.00,,,-99.99,FreeWX-Wi 1.01,2013-01-14 15:53:00,
2013-01-14 09:58:00,12.4,2.8,29.06,WSW,246,5.0,7.6,65,0.00,,,-99.99,FreeWX-Wi 1.01,2013-01-14 15:58:00,
2013-01-14 10:03:00,12.6,3.0,29.06,WSW,249,4.0,8.1,65,0.00,,,-99.99,FreeWX-Wi 1.01,2013-01-14 16:03:00,
2013-01-14 10:08:00,12.7,3.2,29.06,WSW,253,4.0,4.0,65,0.00,,,-99.99,FreeWX-Wi 1.01,2013-01-14 16:08:00,
2013-01-14 10:13:00,12.9,3.4,29.06,WSW,256,4.0,4.9,65,0.00,,,-99.99,FreeWX-Wi 1.01,2013-01-14 16:13:00,
2013-01-14 10:18:00,13.5,3.9,29.06,WSW,257,4.0,5.8,65,0.00,,,-99.99,FreeWX-Wi 1.01,2013-01-14 16:18:00,
2013-01-14 10:23:00,13.8,4.3,29.06,WSW,257,4.0,7.6,65,0.00,,,-99.99,FreeWX-Wi 1.01,2013-01-14 16:23:00,
2013-01-14 10:29:00,14.5,5.5,29.06,WSW,257,4.0,8.1,67,0.00,,,-99.99,FreeWX-Wi 1.01,2013-01-14 16:29:00,
2013-01-14 10:34:00,14.9,5.4,29.06,WSW,255,4.0,8.3,65,0.00,,,-99.99,FreeWX-Wi 1.01,2013-01-14 16:34:00,
2013-01-14 10:39:00,15.4,6.1,29.06,WSW,252,4.0,8.1,66,0.00,,,-99.99,FreeWX-Wi 1.01,2013-01-14 16:39:00,
2013-01-14 10:44:00,15.6,6.3,29.06,WSW,251,5.0,5.8,66,0.00,,,-99.99,FreeWX-Wi 1.01,2013-01-14 16:44:00,
2013-01-14 10:49:00,15.8,5.5,29.06,WSW,251,5.0,8.7,63,0.00,,,-99.99,FreeWX-Wi 1.01,2013-01-14 16:49:00,
2013-01-14 10:54:00,16.5,6.8,29.06,WSW,251,5.0,9.2,65,0.00,,,-99.99,FreeWX-Wi 1.01,2013-01-14 16:54:00,
2013-01-14 10:59:00,16.3,5.4,29.06,WSW,255,4.0,4.0,61,0.00,,,-99.99,FreeWX-Wi 1.01,2013-01-14 16:59:00,
2013-01-14 11:04:00,16.5,5.2,29.06,WSW,258,4.0,8.1,60,0.00,,,-99.99,FreeWX-Wi 1.01,2013-01-14 17:04:00,
2013-01-14 11:10:00,16.2,5.2,29.06,West,260,4.0,6.3,61,0.00,,,-99.99,FreeWX-Wi 1.01,2013-01-14 17:10:00,
2013-01-14 11:15:00,17.1,5.9,29.06,West,262,4.0,6.3,61,0.00,,,-99.99,FreeWX-Wi 1.01,2013-01-14 17:15:00,
2013-01-14 11:20:00,17.1,5.9,29.06,West,264,3.0,4.0,61,0.00,,,-99.99,FreeWX-Wi 1.01,2013-01-14 17:20:00,
2013-01-14 11:25:00,17.8,7.7,29.06,West,266,3.0,6.3,64,0.00,,,-99.99,FreeWX-Wi 1.01,2013-01-14 17:25:00,
2013-01-14 11:30:00,18.7,8.2,29.03,West,263,3.0,5.4,63,0.00,,,-99.99,FreeWX-Wi 1.01,2013-01-14 17:30:00,
2013-01-14 11:35:00,18.1,6.3,29.03,West,263,3.0,8.1,59,0.00,,,-99.99,FreeWX-Wi 1.01,2013-01-14 17:35:00,
2013-01-14 11:41:00,18.9,8.8,29.03,West,263,4.0,10.5,64,0.00,,,-99.99,FreeWX-Wi 1.01,2013-01-14 17:41:00,
2013-01-14 11:46:00,19.6,8.1,29.03,West,262,4.0,11.0,60,0.00,,,-99.99,FreeWX-Wi 1.01,2013-01-14 17:46:00,
2013-01-14 11:51:00,19.0,7.2,29.03,West,260,5.0,11.4,59,0.00,,,-99.99,FreeWX-Wi 1.01,2013-01-14 17:51:00,
2013-01-14 11:56:00,19.2,6.4,29.03,West,260,5.0,5.8,57,0.00,,,-99.99,FreeWX-Wi 1.01,2013-01-14 17:56:00,
2013-01-14 12:01:00,19.6,8.8,29.03,West,260,5.0,8.7,62,0.00,,,-99.99,FreeWX-Wi 1.01,2013-01-14 18:01:00,
2013-01-14 12:06:00,19.0,7.2,29.03,West,260,5.0,6.3,59,0.00,,,-99.99,FreeWX-Wi 1.01,2013-01-14 18:06:00,
2013-01-14 12:11:00,19.2,7.3,29.03,West,262,4.0,5.8,59,0.00,,,-99.99,FreeWX-Wi 1.01,2013-01-14 18:11:00,
2013-01-14 12:16:00,19.6,8.4,29.03,West,263,4.0,5.8,61,0.00,,,-99.99,FreeWX-Wi 1.01,2013-01-14 18:16:00,
2013-01-14 12:21:00,19.6,6.8,29.03,West,264,4.0,6.3,57,0.00,,,-99.99,FreeWX-Wi 1.01,2013-01-14 18:21:00,
2013-01-14 12:26:00,20.3,8.2,29.03,West,263,4.0,8.3,59,0.00,,,-99.99,FreeWX-Wi 1.01,2013-01-14 18:26:00,
2013-01-14 12:31:00,20.3,7.2,29.03,West,261,4.0,11.0,56,0.00,,,-99.99,FreeWX-Wi 1.01,2013-01-14 18:31:00,
2013-01-14 12:36:00,20.7,7.9,29.03,WSW,258,4.0,10.5,57,0.00,,,-99.99,FreeWX-Wi 1.01,2013-01-14 18:36:00,
2013-01-14 12:42:00,20.7,8.2,29.03,WSW,256,4.0,8.1,58,0.00,,,-99.99,FreeWX-Wi 1.01,2013-01-14 18:42:00,
2013-01-14 12:47:00,20.5,8.8,29.03,WSW,257,4.0,6.3,60,0.00,,,-99.99,FreeWX-Wi 1.01,2013-01-14 18:47:00,
2013-01-14 12:52:00,21.2,9.1,29.03,WSW,256,4.0,10.1,59,0.00,,,-99.99,FreeWX-Wi 1.01,2013-01-14 18:52:00,
2013-01-14 12:57:00,21.2,8.1,29.03,WSW,258,4.0,10.1,56,0.00,,,-99.99,FreeWX-Wi 1.01,2013-01-14 18:57:00,
2013-01-14 13:02:00,21.6,8.8,29.03,WSW,257,4.0,11.0,57,0.00,,,-99.99,FreeWX-Wi 1.01,2013-01-14 19:02:00,
2013-01-14 13:07:00,21.9,7.9,29.03,WSW,256,4.0,8.3,54,0.00,,,-99.99,FreeWX-Wi 1.01,2013-01-14 19:07:00,
2013-01-14 13:12:00,22.3,7.7,29.03,WSW,254,5.0,10.5,53,0.00,,,-99.99,FreeWX-Wi 1.01,2013-01-14 19:12:00,
2013-01-14 13:17:00,22.5,9.1,29.03,WSW,252,5.0,8.7,56,0.00,,,-99.99,FreeWX-Wi 1.01,2013-01-14 19:17:00,
2013-01-14 13:22:00,20.8,7.7,29.03,WSW,255,5.0,5.4,56,0.00,,,-99.99,FreeWX-Wi 1.01,2013-01-14 19:22:00,
2013-01-14 13:27:00,20.8,8.4,29.03,WSW,255,5.0,5.0,58,0.00,,,-99.99,FreeWX-Wi 1.01,2013-01-14 19:27:00,
2013-01-14 13:33:00,20.5,7.3,29.00,West,260,4.0,6.3,56,0.00,,,-99.99,FreeWX-Wi 1.01,2013-01-14 19:33:00,
2013-01-14 13:38:00,20.5,7.7,29.00,West,264,4.0,7.6,57,0.00,,,-99.99,FreeWX-Wi 1.01,2013-01-14 19:38:00,
2013-01-14 13:43:00,20.5,7.7,29.00,West,271,3.0,5.8,57,0.00,,,-99.99,FreeWX-Wi 1.01,2013-01-14 19:43:00,
2013-01-14 13:48:00,20.3,6.8,29.00,West,274,3.0,4.9,55,0.00,,,-99.99,FreeWX-Wi 1.01,2013-01-14 19:48:00,
2013-01-14 13:53:00,21.2,8.4,29.00,West,270,3.0,7.6,57,0.00,,,-99.99,FreeWX-Wi 1.01,2013-01-14 19:53:00,
2013-01-14 13:58:00,21.2,7.5,29.00,West,268,3.0,6.3,55,0.00,,,-99.99,FreeWX-Wi 1.01,2013-01-14 19:58:00,
2013-01-14 14:03:00,21.2,8.4,29.00,West,267,3.0,5.4,57,0.00,,,-99.99,FreeWX-Wi 1.01,2013-01-14 20:03:00,
2013-01-14 14:08:00,20.5,7.0,29.00,West,264,3.0,6.3,55,0.00,,,-99.99,FreeWX-Wi 1.01,2013-01-14 20:08:00,
2013-01-14 14:13:00,21.0,7.9,29.00,West,261,4.0,7.6,56,0.00,,,-99.99,FreeWX-Wi 1.01,2013-01-14 20:13:00,
2013-01-14 14:18:00,20.3,5.9,29.00,West,262,4.0,6.3,53,0.00,,,-99.99,FreeWX-Wi 1.01,2013-01-14 20:18:00,
2013-01-14 14:23:00,21.2,8.4,29.00,West,261,4.0,8.7,57,0.00,,,-99.99,FreeWX-Wi 1.01,2013-01-14 20:23:00,
2013-01-14 14:28:00,20.8,7.7,29.00,West,261,4.0,6.3,56,0.00,,,-99.99,FreeWX-Wi 1.01,2013-01-14 20:28:00,
2013-01-14 14:34:00,20.7,6.6,29.00,West,264,4.0,4.0,54,0.00,,,-99.99,FreeWX-Wi 1.01,2013-01-14 20:34:00,
2013-01-14 14:39:00,21.2,8.8,29.00,West,264,4.0,7.6,58,0.00,,,-99.99,FreeWX-Wi 1.01,2013-01-14 20:39:00,
2013-01-14 14:44:00,20.8,7.7,29.00,West,265,3.0,4.0,56,0.00,,,-99.99,FreeWX-Wi 1.01,2013-01-14 20:44:00,
2013-01-14 14:49:00,21.0,8.6,29.00,West,263,4.0,8.1,58,0.00,,,-99.99,FreeWX-Wi 1.01,2013-01-14 20:49:00,
2013-01-14 14:54:00,20.8,8.1,29.00,West,266,3.0,6.3,57,0.00,,,-99.99,FreeWX-Wi 1.01,2013-01-14 20:54:00,
2013-01-14 14:59:00,20.7,7.5,29.00,West,270,3.0,5.4,56,0.00,,,-99.99,FreeWX-Wi 1.01,2013-01-14 20:59:00,
2013-01-14 15:04:00,20.3,7.5,29.00,West,275,3.0,5.4,57,0.00,,,-99.99,FreeWX-Wi 1.01,2013-01-14 21:04:00,
2013-01-14 15:09:00,19.9,7.5,29.00,WNW,282,3.0,5.8,58,0.00,,,-99.99,FreeWX-Wi 1.01,2013-01-14 21:09:00,
2013-01-14 15:14:00,19.8,7.3,29.00,WNW,288,3.0,4.0,58,0.00,,,-99.99,FreeWX-Wi 1.01,2013-01-14 21:14:00,
2013-01-14 15:19:00,19.8,7.0,29.00,WNW,295,3.0,5.8,57,0.00,,,-99.99,FreeWX-Wi 1.01,2013-01-14 21:19:00,
2013-01-14 15:24:00,20.1,7.7,29.00,WNW,301,3.0,5.8,58,0.00,,,-99.99,FreeWX-Wi 1.01,2013-01-14 21:24:00,
2013-01-14 15:30:00,20.3,7.2,29.00,NW,304,3.0,6.3,56,0.00,,,-99.99,FreeWX-Wi 1.01,2013-01-14 21:30:00,
2013-01-14 15:35:00,20.3,7.5,29.00,WNW,301,3.0,5.4,57,0.00,,,-99.99,FreeWX-Wi 1.01,2013-01-14 21:35:00,
2013-01-14 15:40:00,20.1,7.7,29.00,WNW,301,3.0,5.8,58,0.00,,,-99.99,FreeWX-Wi 1.01,2013-01-14 21:40:00,
2013-01-14 15:45:00,20.1,7.0,29.03,WNW,301,3.0,7.2,56,0.00,,,-99.99,FreeWX-Wi 1.01,2013-01-14 21:45:00,
2013-01-14 15:50:00,19.9,6.8,29.03,WNW,301,4.0,5.8,56,0.00,,,-99.99,FreeWX-Wi 1.01,2013-01-14 21:50:00,
2013-01-14 15:55:00,19.9,6.8,29.03,WNW,299,3.0,4.0,56,0.00,,,-99.99,FreeWX-Wi 1.01,2013-01-14 21:55:00,
2013-01-14 16:00:00,19.8,7.0,29.03,WNW,297,3.0,5.8,57,0.00,,,-99.99,FreeWX-Wi 1.01,2013-01-14 22:00:00,
2013-01-14 16:05:00,19.8,7.3,29.03,WNW,299,3.0,6.3,58,0.00,,,-99.99,FreeWX-Wi 1.01,2013-01-14 22:05:00,
2013-01-14 16:10:00,19.6,6.8,29.03,WNW,301,3.0,5.4,57,0.00,,,-99.99,FreeWX-Wi 1.01,2013-01-14 22:10:00,
2013-01-14 16:15:00,19.4,7.0,29.03,WNW,301,3.0,5.8,58,0.00,,,-99.99,FreeWX-Wi 1.01,2013-01-14 22:15:00,
2013-01-14 16:20:00,19.2,7.0,29.03,WNW,296,2.0,2.7,58,0.00,,,-99.99,FreeWX-Wi 1.01,2013-01-14 22:20:00,
2013-01-14 16:25:00,19.0,7.2,29.03,WNW,293,2.0,3.1,59,0.00,,,-99.99,FreeWX-Wi 1.01,2013-01-14 22:25:00,
2013-01-14 16:31:00,18.7,7.2,29.03,WNW,291,2.0,4.0,60,0.00,,,-99.99,FreeWX-Wi 1.01,2013-01-14 22:31:00,
2013-01-14 16:36:00,18.3,7.2,29.03,WNW,290,1.0,3.1,61,0.00,,,-99.99,FreeWX-Wi 1.01,2013-01-14 22:36:00,
2013-01-14 16:41:00,18.1,7.7,29.03,North,-999,0.0,0.0,63,0.00,,,-99.99,FreeWX-Wi 1.01,2013-01-14 22:41:00,
2013-01-14 16:46:00,17.8,7.3,29.03,North,-999,0.0,0.0,63,0.00,,,-99.99,FreeWX-Wi 1.01,2013-01-14 22:46:00,
2013-01-14 16:51:00,17.4,7.3,29.03,North,-999,0.0,0.0,64,0.00,,,-99.99,FreeWX-Wi 1.01,2013-01-14 22:51:00,
2013-01-14 16:56:00,17.1,7.7,29.03,North,-999,0.0,0.0,66,0.00,,,-99.99,FreeWX-Wi 1.01,2013-01-14 22:56:00,
2013-01-14 17:01:00,16.7,7.3,29.03,North,-999,0.0,0.0,66,0.00,,,-99.99,FreeWX-Wi 1.01,2013-01-14 23:01:00,
2013-01-14 17:06:00,16.3,7.3,29.03,North,-999,0.0,0.0,67,0.00,,,-99.99,FreeWX-Wi 1.01,2013-01-14 23:06:00,
2013-01-14 17:11:00,16.0,7.0,29.03,North,-999,0.0,0.0,67,0.00,,,-99.99,FreeWX-Wi 1.01,2013-01-14 23:11:00,
2013-01-14 17:17:00,15.4,6.8,29.03,North,-999,0.0,0.0,68,0.00,,,-99.99,FreeWX-Wi 1.01,2013-01-14 23:17:00,
2013-01-14 17:22:00,15.1,6.4,29.03,North,-999,0.0,0.0,68,0.00,,,-99.99,FreeWX-Wi 1.01,2013-01-14 23:22:00,
2013-01-14 17:27:00,14.9,6.3,29.03,North,-999,0.0,0.0,68,0.00,,,-99.99,FreeWX-Wi 1.01,2013-01-14 23:27:00,
2013-01-14 17:32:00,14.9,7.5,29.03,North,-999,0.0,0.0,72,0.00,,,-99.99,FreeWX-Wi 1.01,2013-01-14 23:32:00,
2013-01-14 17:37:00,14.9,7.2,29.03,North,-999,0.0,0.0,71,0.00,,,-99.99,FreeWX-Wi 1.01,2013-01-14 23:37:00,
2013-01-14 17:42:00,14.5,6.8,29.03,North,-999,0.0,0.0,71,0.00,,,-99.99,FreeWX-Wi 1.01,2013-01-14 23:42:00,
2013-01-14 17:47:00,14.2,6.3,29.03,North,-999,0.0,0.0,70,0.00,,,-99.99,FreeWX-Wi 1.01,2013-01-14 23:47:00,
2013-01-14 17:53:00,13.8,6.3,29.03,North,-999,0.0,0.0,71,0.00,,,-99.99,FreeWX-Wi 1.01,2013-01-14 23:53:00,
2013-01-14 17:58:00,13.8,6.3,29.03,North,-999,0.0,0.0,71,0.00,,,-99.99,FreeWX-Wi 1.01,2013-01-14 23:58:00,
2013-01-14 18:03:00,13.6,6.1,29.03,North,-999,0.0,0.0,71,0.00,,,-99.99,FreeWX-Wi 1.01,2013-01-15 00:03:00,
2013-01-14 18:08:00,13.8,6.3,29.03,North,-999,0.0,0.0,71,0.00,,,-99.99,FreeWX-Wi 1.01,2013-01-15 00:08:00,
2013-01-14 18:13:00,13.8,6.3,29.03,North,-999,0.0,0.0,71,0.00,,,-99.99,FreeWX-Wi 1.01,2013-01-15 00:13:00,
2013-01-14 18:18:00,13.6,6.1,29.00,North,-999,0.0,0.0,71,0.00,,,-99.99,FreeWX-Wi 1.01,2013-01-15 00:18:00,
2013-01-14 18:23:00,13.3,5.7,29.00,North,-999,0.0,3.6,71,0.00,,,-99.99,FreeWX-Wi 1.01,2013-01-15 00:23:00,
2013-01-14 18:28:00,13.1,5.5,29.00,North,-999,0.0,3.1,71,0.00,,,-99.99,FreeWX-Wi 1.01,2013-01-15 00:28:00,
2013-01-14 18:33:00,12.7,5.2,29.00,West,271,1.0,3.1,71,0.00,,,-99.99,FreeWX-Wi 1.01,2013-01-15 00:33:00,
2013-01-14 18:38:00,12.6,5.0,29.00,SSW,200,1.0,2.7,71,0.00,,,-99.99,FreeWX-Wi 1.01,2013-01-15 00:38:00,
2013-01-14 18:44:00,12.6,5.0,29.00,SSE,160,1.0,2.7,71,0.00,,,-99.99,FreeWX-Wi 1.01,2013-01-15 00:44:00,
2013-01-14 18:49:00,12.6,5.0,29.00,SSE,151,2.0,3.1,71,0.00,,,-99.99,FreeWX-Wi 1.01,2013-01-15 00:49:00,
2013-01-14 18:54:00,12.6,5.0,29.00,SSE,147,2.0,3.6,71,0.00,,,-99.99,FreeWX-Wi 1.01,2013-01-15 00:54:00,
2013-01-14 18:59:00,12.7,5.2,29.00,SE,146,2.0,3.6,71,0.00,,,-99.99,FreeWX-Wi 1.01,2013-01-15 00:59:00,
2013-01-14 19:04:00,12.7,5.2,29.00,SE,145,2.0,2.2,71,0.00,,,-99.99,FreeWX-Wi 1.01,2013-01-15 01:04:00,
2013-01-14 19:09:00,12.6,5.0,29.00,SE,144,2.0,0.0,71,0.00,,,-99.99,FreeWX-Wi 1.01,2013-01-15 01:09:00,
2013-01-14 19:14:00,12.6,5.0,29.03,SE,143,2.0,3.6,71,0.00,,,-99.99,FreeWX-Wi 1.01,2013-01-15 01:14:00,
2013-01-14 19:19:00,12.6,5.0,29.03,SE,142,2.0,4.5,71,0.00,,,-99.99,FreeWX-Wi 1.01,2013-01-15 01:19:00,
2013-01-14 19:24:00,12.4,4.8,29.03,SE,141,2.0,4.5,71,0.00,,,-99.99,FreeWX-Wi 1.01,2013-01-15 01:24:00,
2013-01-14 19:29:00,12.4,4.8,29.00,SE,141,2.0,4.0,71,0.00,,,-99.99,FreeWX-Wi 1.01,2013-01-15 01:29:00,
2013-01-14 19:35:00,12.2,4.6,29.00,SE,141,2.0,4.0,71,0.00,,,-99.99,FreeWX-Wi 1.01,2013-01-15 01:35:00,
2013-01-14 19:40:00,12.2,4.6,29.00,SE,143,3.0,3.6,71,0.00,,,-99.99,FreeWX-Wi 1.01,2013-01-15 01:40:00,
2013-01-14 19:45:00,12.4,4.8,29.03,SE,144,3.0,3.6,71,0.00,,,-99.99,FreeWX-Wi 1.01,2013-01-15 01:45:00,
2013-01-14 19:50:00,12.2,4.6,29.03,SSE,147,3.0,4.0,71,0.00,,,-99.99,FreeWX-Wi 1.01,2013-01-15 01:50:00,
2013-01-14 19:55:00,12.0,4.5,29.03,SSE,149,3.0,4.0,71,0.00,,,-99.99,FreeWX-Wi 1.01,2013-01-15 01:55:00,
2013-01-14 20:00:00,12.0,4.5,29.00,SSE,151,3.0,4.5,71,0.00,,,-99.99,FreeWX-Wi 1.01,2013-01-15 02:00:00,
2013-01-14 20:05:00,12.0,4.5,29.00,SSE,153,3.0,5.4,71,0.00,,,-99.99,FreeWX-Wi 1.01,2013-01-15 02:05:00,
2013-01-14 20:11:00,12.2,4.6,29.00,SSE,155,4.0,5.8,71,0.00,,,-99.99,FreeWX-Wi 1.01,2013-01-15 02:11:00,
2013-01-14 20:16:00,12.2,4.6,29.00,SSE,157,4.0,5.4,71,0.00,,,-99.99,FreeWX-Wi 1.01,2013-01-15 02:16:00,
2013-01-14 20:21:00,12.2,4.6,29.00,SSE,159,4.0,4.9,71,0.00,,,-99.99,FreeWX-Wi 1.01,2013-01-15 02:21:00,
2013-01-14 20:26:00,11.8,4.3,29.00,SSE,162,4.0,4.9,71,0.00,,,-99.99,FreeWX-Wi 1.01,2013-01-15 02:26:00,
2013-01-14 20:31:00,11.7,4.1,29.03,SSE,164,4.0,4.9,71,0.00,,,-99.99,FreeWX-Wi 1.01,2013-01-15 02:31:00,
2013-01-14 20:36:00,11.5,3.9,29.03,SSE,165,4.0,4.9,71,0.00,,,-99.99,FreeWX-Wi 1.01,2013-01-15 02:36:00,
2013-01-14 20:41:00,11.3,3.7,29.03,SSE,165,4.0,4.9,71,0.00,,,-99.99,FreeWX-Wi 1.01,2013-01-15 02:41:00,
2013-01-14 20:46:00,11.1,3.6,29.00,SSE,164,4.0,5.4,71,0.00,,,-99.99,FreeWX-Wi 1.01,2013-01-15 02:46:00,
2013-01-14 20:51:00,11.1,3.6,29.00,SSE,163,4.0,5.8,71,0.00,,,-99.99,FreeWX-Wi 1.01,2013-01-15 02:51:00,
2013-01-14 20:56:00,11.1,3.6,29.00,SSE,162,4.0,5.8,71,0.00,,,-99.99,FreeWX-Wi 1.01,2013-01-15 02:56:00,
2013-01-14 21:01:00,11.1,3.6,29.00,SSE,161,4.0,6.3,71,0.00,,,-99.99,FreeWX-Wi 1.01,2013-01-15 03:01:00,
2013-01-14 21:07:00,11.3,3.7,29.00,SSE,160,5.0,6.3,71,0.00,,,-99.99,FreeWX-Wi 1.01,2013-01-15 03:07:00,
2013-01-14 21:12:00,11.3,3.7,29.00,SSE,159,5.0,5.8,71,0.00,,,-99.99,FreeWX-Wi 1.01,2013-01-15 03:12:00,
2013-01-14 21:17:00,11.5,3.9,29.00,SSE,160,5.0,6.3,71,0.00,,,-99.99,FreeWX-Wi 1.01,2013-01-15 03:17:00,
2013-01-14 21:22:00,11.7,4.1,29.00,SSE,162,5.0,5.8,71,0.00,,,-99.99,FreeWX-Wi 1.01,2013-01-15 03:22:00,
2013-01-14 21:27:00,11.8,4.3,29.00,SSE,162,5.0,5.4,71,0.00,,,-99.99,FreeWX-Wi 1.01,2013-01-15 03:27:00,
2013-01-14 21:32:00,11.7,4.1,29.00,SSE,162,5.0,5.8,71,0.00,,,-99.99,FreeWX-Wi 1.01,2013-01-15 03:32:00,
2013-01-14 21:37:00,11.5,3.9,29.00,SSE,162,5.0,6.3,71,0.00,,,-99.99,FreeWX-Wi 1.01,2013-01-15 03:37:00,
2013-01-14 21:42:00,11.7,4.1,29.00,SSE,162,5.0,6.3,71,0.00,,,-99.99,FreeWX-Wi 1.01,2013-01-15 03:42:00,
2013-01-14 21:47:00,11.8,4.3,29.00,SSE,163,5.0,7.2,71,0.00,,,-99.99,FreeWX-Wi 1.01,2013-01-15 03:47:00,
2013-01-14 21:53:00,12.4,4.8,29.00,SSE,165,6.0,8.3,71,0.00,,,-99.99,FreeWX-Wi 1.01,2013-01-15 03:53:00,
2013-01-14 21:58:00,12.7,5.2,29.00,SSE,168,6.0,8.3,71,0.00,,,-99.99,FreeWX-Wi 1.01,2013-01-15 03:58:00,
2013-01-14 22:03:00,12.7,5.2,29.00,South,171,6.0,8.3,71,0.00,,,-99.99,FreeWX-Wi 1.01,2013-01-15 04:03:00,
2013-01-14 22:08:00,12.9,5.4,29.00,South,175,7.0,8.7,71,0.00,,,-99.99,FreeWX-Wi 1.01,2013-01-15 04:08:00,
2013-01-14 22:13:00,12.7,5.2,29.00,South,178,7.0,8.3,71,0.00,,,-99.99,FreeWX-Wi 1.01,2013-01-15 04:13:00,
2013-01-14 22:18:00,12.7,5.2,29.00,South,181,7.0,8.3,71,0.00,,,-99.99,FreeWX-Wi 1.01,2013-01-15 04:18:00,
2013-01-14 22:23:00,12.7,5.2,29.00,South,183,7.0,8.7,71,0.00,,,-99.99,FreeWX-Wi 1.01,2013-01-15 04:23:00,
2013-01-14 22:28:00,12.7,5.2,29.00,South,183,7.0,8.3,71,0.00,,,-99.99,FreeWX-Wi 1.01,2013-01-15 04:28:00,
2013-01-14 22:33:00,12.6,5.0,29.00,South,184,7.0,7.6,71,0.00,,,-99.99,FreeWX-Wi 1.01,2013-01-15 04:33:00,
2013-01-14 22:38:00,12.6,5.0,29.00,South,187,7.0,8.3,71,0.00,,,-99.99,FreeWX-Wi 1.01,2013-01-15 04:38:00,
2013-01-14 22:43:00,12.2,4.6,29.00,South,189,6.0,6.3,71,0.00,,,-99.99,FreeWX-Wi 1.01,2013-01-15 04:43:00,
2013-01-14 22:49:00,12.0,4.5,29.00,South,188,6.0,6.3,71,0.00,,,-99.99,FreeWX-Wi 1.01,2013-01-15 04:49:00,
2013-01-14 22:54:00,12.0,4.5,29.00,South,189,6.0,6.3,71,0.00,,,-99.99,FreeWX-Wi 1.01,2013-01-15 04:54:00,
2013-01-14 22:59:00,11.8,4.3,29.00,South,191,5.0,5.8,71,0.00,,,-99.99,FreeWX-Wi 1.01,2013-01-15 04:59:00,
2013-01-14 23:04:00,11.8,4.3,29.00,South,189,5.0,6.7,71,0.00,,,-99.99,FreeWX-Wi 1.01,2013-01-15 05:04:00,
2013-01-14 23:09:00,11.7,4.1,29.00,South,186,5.0,8.1,71,0.00,,,-99.99,FreeWX-Wi 1.01,2013-01-15 05:09:00,
2013-01-14 23:14:00,11.8,4.3,29.00,South,186,5.0,8.1,71,0.00,,,-99.99,FreeWX-Wi 1.01,2013-01-15 05:14:00,
2013-01-14 23:19:00,11.8,4.3,29.00,South,186,5.0,7.6,71,0.00,,,-99.99,FreeWX-Wi 1.01,2013-01-15 05:19:00,
2013-01-14 23:24:00,11.7,4.1,29.00,South,187,5.0,6.3,71,0.00,,,-99.99,FreeWX-Wi 1.01,2013-01-15 05:24:00,
2013-01-14 23:29:00,11.7,4.1,29.00,South,186,6.0,8.1,71,0.00,,,-99.99,FreeWX-Wi 1.01,2013-01-15 05:29:00,
2013-01-14 23:35:00,11.7,4.1,29.00,South,188,6.0,8.3,71,0.00,,,-99.99,FreeWX-Wi 1.01,2013-01-15 05:35:00,
2013-01-14 23:40:00,11.7,4.1,29.00,South,188,6.0,7.6,71,0.00,,,-99.99,FreeWX-Wi 1.01,2013-01-15 05:40:00,
2013-01-14 23:45:00,11.7,4.1,29.00,South,189,6.0,7.6,71,0.00,,,-99.99,FreeWX-Wi 1.01,2013-01-15 05:45:00,
2013-01-14 23:50:00,11.7,4.1,29.00,South,190,6.0,7.6,71,0.00,,,-99.99,FreeWX-Wi 1.01,2013-01-15 05:50:00,
2013-01-14 23:55:00,11.3,3.7,29.00,South,190,6.0,6.7,71,0.00,,,-99.99,FreeWX-Wi 1.01,2013-01-15 05:55:00,